******** Week 371 almanac for PRN-01 ******** ID: 01 Health: 000 Eccentricity: 0.1754283905E-002 Time of Applicability(s): 503808.0000 Orbital Inclination(rad): 0.9572064085 Rate of Right Ascen(r/s): -0.7966046104E-008 SQRT(A) (m 1/2): 5153.564453 Right Ascen at Week(rad): 0.1755373988E+001 Argument of Perigee(rad): 0.198904053 Mean Anom(rad): -0.1249027378E+001 Af0(s): 0.2679824829E-003 Af1(s/s): -0.1091393642E-010 week: 371 ******** Week 371 almanac for PRN-02 ******** ID: 02 Health: 000 Eccentricity: 0.1681995392E-001 Time of Applicability(s): 503808.0000 Orbital Inclination(rad): 0.9622877198 Rate of Right Ascen(r/s): -0.7840326581E-008 SQRT(A) (m 1/2): 5153.706055 Right Ascen at Week(rad): 0.1593110954E+001 Argument of Perigee(rad): -0.764116802 Mean Anom(rad): 0.2435681360E+000 Af0(s): 0.1039505005E-003 Af1(s/s): 0.7275957614E-011 week: 371 ******** Week 371 almanac for PRN-03 ******** ID: 03 Health: 000 Eccentricity: 0.6855487823E-002 Time of Applicability(s): 503808.0000 Orbital Inclination(rad): 0.9945073085 Rate of Right Ascen(r/s): -0.7771752296E-008 SQRT(A) (m 1/2): 5153.541992 Right Ascen at Week(rad): 0.2745574691E+001 Argument of Perigee(rad): 1.225712818 Mean Anom(rad): 0.2993922660E+001 Af0(s): 0.4529953003E-003 Af1(s/s): -0.1455191523E-010 week: 371 ******** Week 371 almanac for PRN-04 ******** ID: 04 Health: 000 Eccentricity: 0.3729343414E-002 Time of Applicability(s): 503808.0000 Orbital Inclination(rad): 0.9716294232 Rate of Right Ascen(r/s): -0.7874613724E-008 SQRT(A) (m 1/2): 5153.652344 Right Ascen at Week(rad): -0.2468961552E+001 Argument of Perigee(rad): -2.879059482 Mean Anom(rad): -0.3407077690E+000 Af0(s): 0.5817413330E-004 Af1(s/s): 0.0000000000E+000 week: 371 ******** Week 371 almanac for PRN-05 ******** ID: 05 Health: 000 Eccentricity: 0.5576133728E-002 Time of Applicability(s): 503808.0000 Orbital Inclination(rad): 0.9809291817 Rate of Right Ascen(r/s): -0.7908900866E-008 SQRT(A) (m 1/2): 5153.700195 Right Ascen at Week(rad): 0.2684780216E+001 Argument of Perigee(rad): 1.437380820 Mean Anom(rad): 0.2908024604E+000 Af0(s): -0.2336502075E-003 Af1(s/s): 0.0000000000E+000 week: 371 ******** Week 371 almanac for PRN-06 ******** ID: 06 Health: 000 Eccentricity: 0.3718376160E-002 Time of Applicability(s): 503808.0000 Orbital Inclination(rad): 0.9859925167 Rate of Right Ascen(r/s): -0.7657461821E-008 SQRT(A) (m 1/2): 5153.644531 Right Ascen at Week(rad): 0.1708148652E+001 Argument of Perigee(rad): -0.525973774 Mean Anom(rad): -0.2016521859E+001 Af0(s): -0.6008148193E-003 Af1(s/s): 0.3637978807E-011 week: 371 ******** Week 371 almanac for PRN-07 ******** ID: 07 Health: 000 Eccentricity: 0.2086257935E-001 Time of Applicability(s): 503808.0000 Orbital Inclination(rad): 0.9506390532 Rate of Right Ascen(r/s): -0.7828897534E-008 SQRT(A) (m 1/2): 5153.549805 Right Ascen at Week(rad): -0.1460865032E+001 Argument of Perigee(rad): -1.966716169 Mean Anom(rad): -0.2829557143E+001 Af0(s): -0.1878738403E-003 Af1(s/s): -0.3637978807E-011 week: 371 ******** Week 371 almanac for PRN-08 ******** ID: 08 Health: 000 Eccentricity: 0.1160478592E-001 Time of Applicability(s): 503808.0000 Orbital Inclination(rad): 0.9427774017 Rate of Right Ascen(r/s): -0.8126052768E-008 SQRT(A) (m 1/2): 5153.664062 Right Ascen at Week(rad): 0.5843418182E+000 Argument of Perigee(rad): 0.542109410 Mean Anom(rad): -0.4872785847E-001 Af0(s): 0.4377365112E-003 Af1(s/s): -0.7275957614E-011 week: 371 ******** Week 371 almanac for PRN-09 ******** ID: 09 Health: 000 Eccentricity: 0.3438949585E-002 Time of Applicability(s): 503808.0000 Orbital Inclination(rad): 0.9659129479 Rate of Right Ascen(r/s): -0.7966046104E-008 SQRT(A) (m 1/2): 5153.683105 Right Ascen at Week(rad): -0.2533732169E+001 Argument of Perigee(rad): 2.035067447 Mean Anom(rad): 0.5641697462E+000 Af0(s): 0.7467269897E-003 Af1(s/s): -0.3637978807E-011 week: 371 ******** Week 371 almanac for PRN-10 ******** ID: 10 Health: 000 Eccentricity: 0.1098012924E-001 Time of Applicability(s): 503808.0000 Orbital Inclination(rad): 0.9940219474 Rate of Right Ascen(r/s): -0.7794610391E-008 SQRT(A) (m 1/2): 5153.606934 Right Ascen at Week(rad): 0.2743066992E+001 Argument of Perigee(rad): -2.259630474 Mean Anom(rad): 0.2004967193E+001 Af0(s): -0.5836486816E-003 Af1(s/s): 0.3637978807E-011 week: 371 ******** Week 371 almanac for PRN-11 ******** ID: 11 Health: 000 Eccentricity: 0.2292633057E-002 Time of Applicability(s): 503808.0000 Orbital Inclination(rad): 0.9628929232 Rate of Right Ascen(r/s): -0.7886042771E-008 SQRT(A) (m 1/2): 5153.570312 Right Ascen at Week(rad): 0.1725156514E+001 Argument of Perigee(rad): -2.351967429 Mean Anom(rad): -0.8003604682E+000 Af0(s): -0.3318786621E-003 Af1(s/s): 0.1091393642E-010 week: 371 ******** Week 371 almanac for PRN-12 ******** ID: 12 Health: 000 Eccentricity: 0.8785247803E-002 Time of Applicability(s): 503808.0000 Orbital Inclination(rad): 0.9590459870 Rate of Right Ascen(r/s): -0.7931758961E-008 SQRT(A) (m 1/2): 5153.673340 Right Ascen at Week(rad): -0.3424151465E+000 Argument of Perigee(rad): 1.580506171 Mean Anom(rad): 0.2713515391E+001 Af0(s): -0.6074905396E-003 Af1(s/s): 0.0000000000E+000 week: 371 ******** Week 371 almanac for PRN-13 ******** ID: 13 Health: 063 Eccentricity: 0.2455711365E-003 Time of Applicability(s): 503808.0000 Orbital Inclination(rad): 0.9594354743 Rate of Right Ascen(r/s): -0.7897471819E-008 SQRT(A) (m 1/2): 5153.550293 Right Ascen at Week(rad): -0.4509633871E+000 Argument of Perigee(rad): -1.488519380 Mean Anom(rad): -0.4552799551E+000 Af0(s): 0.3175735474E-003 Af1(s/s): 0.2546585165E-010 week: 371 ******** Week 371 almanac for PRN-14 ******** ID: 14 Health: 000 Eccentricity: 0.7151126862E-002 Time of Applicability(s): 503808.0000 Orbital Inclination(rad): 0.9423339854 Rate of Right Ascen(r/s): -0.8091765626E-008 SQRT(A) (m 1/2): 5153.597168 Right Ascen at Week(rad): -0.3983174361E+000 Argument of Perigee(rad): -2.705430533 Mean Anom(rad): 0.2589357697E+001 Af0(s): 0.7467269897E-003 Af1(s/s): 0.0000000000E+000 week: 371 ******** Week 371 almanac for PRN-15 ******** ID: 15 Health: 000 Eccentricity: 0.1678323746E-001 Time of Applicability(s): 503808.0000 Orbital Inclination(rad): 0.9439997926 Rate of Right Ascen(r/s): -0.8171768958E-008 SQRT(A) (m 1/2): 5153.678223 Right Ascen at Week(rad): -0.2679675310E+001 Argument of Perigee(rad): 1.516808143 Mean Anom(rad): -0.1047643714E+001 Af0(s): 0.4138946533E-003 Af1(s/s): 0.3637978807E-011 week: 371 ******** Week 371 almanac for PRN-16 ******** ID: 16 Health: 000 Eccentricity: 0.1498794556E-001 Time of Applicability(s): 503808.0000 Orbital Inclination(rad): 0.9581471701 Rate of Right Ascen(r/s): -0.7954617056E-008 SQRT(A) (m 1/2): 5153.628418 Right Ascen at Week(rad): -0.3255784341E+000 Argument of Perigee(rad): 0.933718676 Mean Anom(rad): 0.1010466401E+001 Af0(s): 0.2679824829E-003 Af1(s/s): 0.7275957614E-011 week: 371 ******** Week 371 almanac for PRN-17 ******** ID: 17 Health: 000 Eccentricity: 0.1257514954E-001 Time of Applicability(s): 503808.0000 Orbital Inclination(rad): 0.9583628862 Rate of Right Ascen(r/s): -0.7954617056E-008 SQRT(A) (m 1/2): 5153.586914 Right Ascen at Week(rad): 0.6902430431E+000 Argument of Perigee(rad): -1.108701467 Mean Anom(rad): -0.6412646395E-001 Af0(s): -0.1401901245E-003 Af1(s/s): -0.7275957614E-011 week: 371 ******** Week 371 almanac for PRN-18 ******** ID: 18 Health: 000 Eccentricity: 0.6000041962E-002 Time of Applicability(s): 503808.0000 Orbital Inclination(rad): 0.9709642987 Rate of Right Ascen(r/s): -0.7817468486E-008 SQRT(A) (m 1/2): 5153.583008 Right Ascen at Week(rad): 0.1701959923E+001 Argument of Perigee(rad): -2.874392375 Mean Anom(rad): -0.2039699350E+001 Af0(s): -0.3461837769E-003 Af1(s/s): 0.1091393642E-010 week: 371 ******** Week 371 almanac for PRN-19 ******** ID: 19 Health: 000 Eccentricity: 0.1154375076E-001 Time of Applicability(s): 503808.0000 Orbital Inclination(rad): 0.9575000220 Rate of Right Ascen(r/s): -0.7943188009E-008 SQRT(A) (m 1/2): 5153.688477 Right Ascen at Week(rad): 0.7340626125E+000 Argument of Perigee(rad): 2.979724349 Mean Anom(rad): 0.1648792659E+001 Af0(s): 0.6999969482E-003 Af1(s/s): 0.0000000000E+000 week: 371 ******** Week 371 almanac for PRN-20 ******** ID: 20 Health: 000 Eccentricity: 0.2046108246E-002 Time of Applicability(s): 503808.0000 Orbital Inclination(rad): 0.9612930292 Rate of Right Ascen(r/s): -0.8000333246E-008 SQRT(A) (m 1/2): 5153.553223 Right Ascen at Week(rad): -0.2528538131E+001 Argument of Perigee(rad): -1.831929217 Mean Anom(rad): 0.2586490472E+001 Af0(s): 0.1659393311E-003 Af1(s/s): 0.1455191523E-010 week: 371 ******** Week 371 almanac for PRN-21 ******** ID: 21 Health: 000 Eccentricity: 0.7905960083E-003 Time of Applicability(s): 503808.0000 Orbital Inclination(rad): 0.9639115823 Rate of Right Ascen(r/s): -0.8103194673E-008 SQRT(A) (m 1/2): 5153.504883 Right Ascen at Week(rad): 0.2749397284E+001 Argument of Perigee(rad): -0.147558391 Mean Anom(rad): 0.2279759478E+001 Af0(s): 0.4138946533E-003 Af1(s/s): 0.0000000000E+000 week: 371 ******** Week 371 almanac for PRN-22 ******** ID: 22 Health: 000 Eccentricity: 0.1193284988E-001 Time of Applicability(s): 503808.0000 Orbital Inclination(rad): 0.9576138721 Rate of Right Ascen(r/s): -0.7931758961E-008 SQRT(A) (m 1/2): 5153.666504 Right Ascen at Week(rad): -0.3222101178E+000 Argument of Perigee(rad): -0.994874925 Mean Anom(rad): 0.5712831326E+000 Af0(s): 0.2861022949E-005 Af1(s/s): 0.7275957614E-011 week: 371 ******** Week 371 almanac for PRN-23 ******** ID: 23 Health: 000 Eccentricity: 0.6210803986E-002 Time of Applicability(s): 503808.0000 Orbital Inclination(rad): 0.9889586124 Rate of Right Ascen(r/s): -0.7828897534E-008 SQRT(A) (m 1/2): 5153.671875 Right Ascen at Week(rad): 0.2710596483E+001 Argument of Perigee(rad): -2.741474213 Mean Anom(rad): 0.3053127727E+001 Af0(s): 0.6504058838E-003 Af1(s/s): 0.3637978807E-011 week: 371 ******** Week 371 almanac for PRN-24 ******** ID: 24 Health: 000 Eccentricity: 0.1811504364E-001 Time of Applicability(s): 503808.0000 Orbital Inclination(rad): 0.9347180105 Rate of Right Ascen(r/s): -0.8034620388E-008 SQRT(A) (m 1/2): 5153.583984 Right Ascen at Week(rad): -0.1570862240E+001 Argument of Perigee(rad): 1.147389167 Mean Anom(rad): -0.1851090869E+001 Af0(s): 0.2384185791E-004 Af1(s/s): 0.1818989404E-010 week: 371 ******** Week 371 almanac for PRN-25 ******** ID: 25 Health: 000 Eccentricity: 0.1284885406E-001 Time of Applicability(s): 503808.0000 Orbital Inclination(rad): 0.9473613677 Rate of Right Ascen(r/s): -0.8046049436E-008 SQRT(A) (m 1/2): 5153.631348 Right Ascen at Week(rad): -0.4371167388E+000 Argument of Perigee(rad): 1.160096939 Mean Anom(rad): 0.2623723586E+001 Af0(s): 0.4205703735E-003 Af1(s/s): -0.3637978807E-011 week: 371 ******** Week 371 almanac for PRN-26 ******** ID: 26 Health: 000 Eccentricity: 0.1106882095E-001 Time of Applicability(s): 503808.0000 Orbital Inclination(rad): 0.9280607735 Rate of Right Ascen(r/s): -0.8240343243E-008 SQRT(A) (m 1/2): 5153.695312 Right Ascen at Week(rad): -0.5131394185E+000 Argument of Perigee(rad): 0.713923872 Mean Anom(rad): 0.1785859235E+001 Af0(s): -0.3681182861E-003 Af1(s/s): -0.3637978807E-011 week: 371 ******** Week 371 almanac for PRN-27 ******** ID: 27 Health: 000 Eccentricity: 0.1433563232E-001 Time of Applicability(s): 503808.0000 Orbital Inclination(rad): 0.9518614442 Rate of Right Ascen(r/s): -0.8046049436E-008 SQRT(A) (m 1/2): 5153.615723 Right Ascen at Week(rad): 0.6170542581E+000 Argument of Perigee(rad): 0.898864430 Mean Anom(rad): 0.7218810224E-001 Af0(s): 0.0000000000E+000 Af1(s/s): 0.0000000000E+000 week: 371 ******** Week 371 almanac for PRN-28 ******** ID: 28 Health: 063 Eccentricity: 0.4758834839E-003 Time of Applicability(s): 503808.0000 Orbital Inclination(rad): 0.9615566821 Rate of Right Ascen(r/s): -0.7737465154E-008 SQRT(A) (m 1/2): 5153.540039 Right Ascen at Week(rad): -0.1485698593E+001 Argument of Perigee(rad): -0.426131324 Mean Anom(rad): -0.2063774159E+001 Af0(s): -0.5216598511E-003 Af1(s/s): 0.1091393642E-010 week: 371 ******** Week 371 almanac for PRN-29 ******** ID: 29 Health: 000 Eccentricity: 0.3603458405E-002 Time of Applicability(s): 503808.0000 Orbital Inclination(rad): 0.9610293762 Rate of Right Ascen(r/s): -0.7897471819E-008 SQRT(A) (m 1/2): 5153.664062 Right Ascen at Week(rad): 0.7071909842E+000 Argument of Perigee(rad): 2.797942757 Mean Anom(rad): -0.1442110469E+000 Af0(s): -0.3166198730E-003 Af1(s/s): 0.7275957614E-011 week: 371 ******** Week 371 almanac for PRN-30 ******** ID: 30 Health: 000 Eccentricity: 0.8238792419E-002 Time of Applicability(s): 503808.0000 Orbital Inclination(rad): 0.9359224251 Rate of Right Ascen(r/s): -0.7988904198E-008 SQRT(A) (m 1/2): 5153.660645 Right Ascen at Week(rad): -0.1471057990E+001 Argument of Perigee(rad): -2.270772059 Mean Anom(rad): -0.3092964414E+001 Af0(s): 0.2317428589E-003 Af1(s/s): 0.1455191523E-010 week: 371 ******** Week 371 almanac for PRN-31 ******** ID: 31 Health: 000 Eccentricity: 0.1081609726E-001 Time of Applicability(s): 503808.0000 Orbital Inclination(rad): 0.9543661472 Rate of Right Ascen(r/s): -0.7817468486E-008 SQRT(A) (m 1/2): 5153.555176 Right Ascen at Week(rad): -0.1436280892E+001 Argument of Perigee(rad): 0.953175065 Mean Anom(rad): 0.2377378480E+001 Af0(s): -0.1478195190E-003 Af1(s/s): 0.3637978807E-011 week: 371 ******** Week 371 almanac for PRN-32 ******** ID: 32 Health: 000 Eccentricity: 0.9377479553E-002 Time of Applicability(s): 503808.0000 Orbital Inclination(rad): 0.9688970199 Rate of Right Ascen(r/s): -0.7920329914E-008 SQRT(A) (m 1/2): 5153.716797 Right Ascen at Week(rad): -0.2516462900E+001 Argument of Perigee(rad): -1.976273214 Mean Anom(rad): 0.5961848540E+000 Af0(s): 0.6866455078E-004 Af1(s/s): 0.2182787284E-010 week: 371